Showing default

COSMOS 2322, 23704

Orbit data source: Space-Track

COSMOS 2322, 23704 is a payload satellite owned by GRU (CIS) in LEO that was launched on Tue, 31 Oct 1995 UTC via a ZENIT-2 launch vehicle from the Tyuratam Missile And Space Complex (TTMTR). Payload-class satellites include a variety of spacecraft equipped with specific instruments for various scientific and technological missions. These include communications satellites like Starlink; space stations such as the ISS; scientific satellites like the Hubble; Earth observation satellites from companies like Planet Labs, Umbra, and HawkEye 360; GPS; miniature CubeSats for education and research; and military/defense satellites.

Loading next visibility...
Identifier
23704, 1995-058A
Orbit
LEO
Last TLE update
11 hours ago
Origin
Manufacturer
Yuzhnoe
Mission
Defense Sigint
Bus & Motor
TSELINA-2, Unknown motor
Mass
3,250 kg wet, 3,250 kg dry
Launch date (UTC)
1995-10-31 (30 years ago)
Launch vehicle
ZENIT-2
Launch site
Tyuratam Missile And Space Complex (TTMTR)
Object type
Payload
Rocket body
Debris
Shape & HBR
Cyl, 4.5 m
Radar Cross Section
5.718 m², Large (>1 m²)

Expand to show TLE details & history

TLE from 11 hours ago
0 COSMOS 2322
1 23704U 95058A   25186.88837248  .00000041  00000-0  46776-4 0  9992
2 23704  70.9848 359.1730 0010626 313.0869  46.9363 14.13747895531174
Epoch: 2025-07-05T21:19Z
TLE epoch observation values (Epoch: 2025-07-05T21:19:15.382Z)
Latitude
0.00002°
Longitude
115.23896°
Altitude
843.734 km
Speed
7.434 km/s
True Right ascension
23h 56m 41s
True Declination
0° 00' 00"
Sunlit
Object was in daylight at epoch
Visualization orbit readout
Latitude
25.10802°
Longitude
-74.95837°
Altitude
856.266 km
Speed
7.423 km/s
Apparent Right ascension
09h 57m 54s
Apparent Declination
-5° 30' 13"
Sunlit
Object is in daylight
Visualization observer readout
Local Sidereal Time
20:11:47
Azimuth
318.239° NNW
Elevation
-48.126°
Doppler factor
1
Orbital elements
Apogee altitude
852.177 km
Perigee altitude
836.828 km
Semi-major axis
7,222.639 km
Eccentricity
0.00106
Inclination
70.9848°
RAAN
359.173°
Arg. of periapsis
313.0869°
True anomaly
Unknown
Mean anomaly
46.9363°
Eccentric anomaly
Unknown
Mean motion
3.53589 °/min
Orbital period
101.81 mins
BSTAR
0.000046776
Loading maneuver chart data...
Loading SW <> Apogee altitude chart data...
Loading historical data...
Loading historical data...
Loading historical data...
Loading historical data...
Loading historical data...
Loading historical data...
Loading historical data...

COSMOS 2322 Visibility forecast

Observer location: undefined°, undefined°

Span
Click to sort rows by Start time (UTC) header in descending order
Start Az.
Max El. time (UTC)
Max El. Az.
Max El.
End time (UTC)
End Az.
10 mins2025-07-06 12:42:59.601Z193.279° SSW2025-07-06 12:47:59.601Z117.5° SE43.728°2025-07-06 12:52:59.601Z27.777° NE
5 mins2025-07-06 14:30:59.601Z286.119° WNW2025-07-06 14:32:59.601Z311.511° NW16.886°2025-07-06 14:35:59.601Z346.057° N
8 mins2025-07-06 21:39:59.601Z9.358° NNE2025-07-06 21:42:59.601Z56.245° ENE27.744°2025-07-06 21:47:59.601Z119.543° SE
8 mins2025-07-06 23:23:59.601Z308.394° NW2025-07-06 23:26:59.601Z260.556° W30.64°2025-07-06 23:31:59.601Z191.936° SSW
|